Tracking 25710 objects as of 6-Jul-2022
HD Live streaming from Space Station
objects crossing your sky now

FENGYUN 1C DEB

Track FENGYUN 1C DEB now!
10-day predictions


NORAD ID: 31003
Int'l Code: 1999-025BCV
Perigee: 820.5 km
Apogee: 887.1 km
Inclination: 98.9 °
Period: 101.9 minutes
Semi major axis: 7224 km
RCS: 0.0252 m2 (small)
Launch date: May 10, 1999
Source: People's Republic of China (PRC)
Launch site: Taiyaun Space Center, China (TSC)

Note: This is SATELLITE DEBRIS
aabbcc
Your satellite tracking list
Your tracking list is empty




NASA's NSSDC Master Catalog

Two Line Element Set (TLE):
1 31003U 99025BCV 22186.56228254  .00000997  00000-0  54569-3 0  9992
2 31003  98.9228 246.1745 0046079 204.3601 155.5393 14.13720970787016
Source of the keplerian elements: AFSPC